Home   Weather   Scottsdale   Past weeks

Flag for USA Past Weather in Scottsdale, Arizona, USA — Yesterday and Last 2 Weeks

Now
52 °F

Clear.


Feels Like: 52 °F
Forecast: 49 / 59 °F
Wind: No wind

Location: Scottsdale Airport

Current Time: Dec 7, 2016 at 1:50:13 am

Latest Report: Dec 7, 2016 at 12:53 am


Visibility: 10 mi

Pressure: 29.89 "Hg

Humidity: 75%

Dew Point: 44 °F

Location of ScottsdaleLocation

Past Weather in Scottsdale — Graph

°F

Scottsdale Temperature Yesterday

Maximum temperature yesterday: 63 °F (at 1:53 pm)
Minimum temperature yesterday: 45 °F (at 3:53 am)
Average temperature yesterday: 54 °F

High & Low Weather Summary for the Past Weeks

 TemperatureHumidityPressure
High79 °F (Nov 25, 2:53 pm)93% (Nov 27, 10:53 pm)30.17 "Hg (Nov 27, 10:53 pm)
Low38 °F (Nov 30, 4:53 am)7% (Nov 24, 12:53 pm)29.77 "Hg (Nov 28, 2:53 pm)
Average55 °F45%29.96 "Hg
* Reported Nov 21 11:53 pm — Dec 6 11:53 pm, Scottsdale, Weather by CustomWeather, © 2016

Note: Actual official high and low records may vary slightly from our data, if they occured in-between our weather recording intervals... More about our weather records

Advertising

Scottsdale Weather History for the Previous 24 Hours

Scroll right to see more
 ConditionsComfort  
Time TempWeatherWind HumidityBarometerVisibility
11:53 pm
Tue, Dec 6
52 °FPassing clouds.No wind75%29.90 "Hg10 mi
10:53 pm53 °FPassing clouds.No wind72%29.90 "Hg10 mi
9:53 pm54 °FClear.No wind69%29.89 "Hg10 mi
8:53 pm55 °FClear.No wind67%29.88 "Hg10 mi
7:53 pm57 °FClear.No wind64%29.87 "Hg10 mi
6:53 pm59 °FClear.3 mph60%29.86 "Hg10 mi
5:53 pm60 °FClear.No wind58%29.86 "Hg10 mi
4:53 pm62 °FSunny.No wind54%29.86 "Hg10 mi
3:53 pm62 °FSunny.7 mph52%29.85 "Hg10 mi
2:53 pm63 °FSunny.6 mph50%29.85 "Hg10 mi
1:53 pm63 °FSunny.5 mph37%29.86 "Hg10 mi
12:53 pm61 °FSunny.3 mph31%29.88 "Hg10 mi
11:53 am60 °FSunny.6 mph30%29.92 "Hg10 mi
10:53 am58 °FPassing clouds.6 mph32%29.94 "Hg10 mi
9:53 am54 °FSunny.6 mph40%29.94 "Hg10 mi
8:53 am49 °FSunny.No wind43%29.93 "Hg10 mi
7:53 am48 °FSunny.No wind48%29.91 "Hg10 mi
6:53 am47 °FClear.No wind48%29.89 "Hg10 mi
5:53 am46 °FClear.No wind58%29.89 "Hg10 mi
4:53 am46 °FClear.No wind56%29.89 "Hg10 mi
3:53 am45 °FClear.No wind58%29.89 "Hg10 mi
2:53 am47 °FClear.No wind52%29.89 "Hg10 mi
1:53 am46 °FClear.No wind54%29.90 "Hg10 mi
Weather by CustomWeather, © 2016

See weather overviewHow to use our weather pages